Miscellaneous Local Product
Issued by NWS Hastings, NE

Home | Current Version | Previous Version | Graphics & Text | Print | Product List | Glossary On
Versions: 1 2 3 4 5 6 7 8 9 10 11 12 13 14 15 16 17 18 19 20 21 22 23 24 25 26 27 28 29 30 31 32 33 34 35 36 37 38 39 40 41 42 43 44 45 46 47 48 49 50
947
AXUS43 KGID 230202
MISGRI

GID CWA HOURLY WEATHER ROUNDUP
NATIONAL WEATHER SERVICE HASTINGS NE
900 PM CDT SUN MAY 22 2016

NOTE: "FAIR" INDICATES FEW OR NO CLOUDS BELOW 12,000 FEET WITH NO
SIGNIFICANT WEATHER AND/OR OBSTRUCTIONS TO VISIBILITY.

...SOUTH CENTRAL NEBRASKA...

CITY           SKY/WX    TMP DP  RH WIND       PRES   REMARKS
GRAND ISLAND   CLEAR     74  64  71 S22G29    29.73R
HASTINGS       MOCLDY    74  64  71 S22G28    29.73S
KEARNEY        PTCLDY    73  64  73 S28G36    29.72R
ORD            CLOUDY    74  65  73 S21G31    29.66S
YORK           CLEAR     75  64  69 S20G28    29.75S
AURORA         CLEAR     76  63  64 S20G28    29.74R
LEXINGTON      PTCLDY    73  65  76 SE21G32   29.68S
HOLDREGE       MOCLDY    73  65  78 SE18G30   29.71R
HEBRON         PTCLDY    76  64  65 S18G24    29.78S

...NEBRASKA PANHANDLE...

CITY           SKY/WX    TMP DP  RH WIND       PRES   REMARKS
CHADRON        CLOUDY    55  46  71 NW26G37   29.77R
ALLIANCE       PTCLDY    55  44  66 NW33G40   29.74R
SCOTTSBLUFF    LGT RAIN  53  47  79 NW28G38   29.77F
SIDNEY         PTCLDY    56  45  66 NW25G43   29.73R

...WESTERN AND NORTH CENTRAL NEBRASKA...

CITY           SKY/WX    TMP DP  RH WIND       PRES   REMARKS
VALENTINE      TSTM      58  56  93 E28G33    29.54F FOG
AINSWORTH      CLOUDY    74  64  73 SE23G35   29.59R
ONEILL         CLOUDY    77  64  63 S25G33    29.66F
BROKEN BOW     CLOUDY    73  66  78 S24G35    29.65F
IMPERIAL       CLEAR     77  64  64 S32G44    29.61R
NORTH PLATTE   PTCLDY    74  65  73 S18G36    29.61R
MCCOOK         PTCLDY    75  65  70 S30G43    29.65R

...EASTERN NEBRASKA...

CITY           SKY/WX    TMP DP  RH WIND       PRES   REMARKS
NORFOLK        PTCLDY    76  62  62 SE20G26   29.73R
SO SIOUX CITY  CLEAR     78  59  51 SE16G28   29.76F
TEKAMAH        PTCLDY    77  59  53 SE22      29.78F
COLUMBUS       CLEAR     75  61  60 SE16      29.75S
ALBION         MOCLDY    76  63  62 S18G28    29.72R
OMAHA EPPLEY   MOCLDY    77  61  57 SE18G28   29.80F
OFFUTT AFB     PTCLDY    76  61  60 SE14      29.80F
MILLARD        PTCLDY    78  63  59 SE13      29.81F
LINCOLN        CLEAR     77  62  59 S17       29.78F
NEBRASKA CITY  PTCLDY    75  60  58 SE15G21   29.84S
BEATRICE       CLEAR     75  63  64 S15G21    29.81R
FALLS CITY     PTCLDY    74  62  66 SE13      29.84F

...NORTHERN KANSAS...

CITY           SKY/WX    TMP DP  RH WIND       PRES   REMARKS
GOODLAND       CLEAR     71  61  70 S31G40    29.66R
HILL CITY      CLOUDY    75  65  70 S22G31    29.72S
NORTON         PTCLDY    73  61  64 SE22G32   29.69F
PHILLIPSBURG   CLOUDY    75  66  73 SE14G21   29.72S
SMITH CENTER   MOCLDY    72  64  78 SE18G28   29.74F
BELOIT         CLEAR     73  64  73 SE15G24   29.75F
HAYS           CLOUDY    73  63  68 S23G32    29.75R
RUSSELL        CLOUDY    74  66  76 S22G32    29.75F
CONCORDIA      MOCLDY    74  64  71 SE20G28   29.79S
SALINA         PTCLDY    77  66  68 SE15      29.79F
TOPEKA         PTCLDY    75  62  64 SE10      29.87F



USA.gov is the U.S. government's official web portal to all federal, state and local government web resources and services.